Погода в Укромном

Россия / Республика Крым     45°02′45″N   34°00′13″E
темп.,
°C
ветер,
м/с
пор.,
м/с
влажн.,
%
обл.,
%
осадки,
мм/ч
давл.,
гПа
погр.,
м
8 августа, пн
пн800:00+21всв35600 0.0 101366
03:00+20св35580 0.0 101384
06:00+20всв49620 0.0 1013167
09:00+28всв611340 0.0 1014840
12:00+34всв79160 0.0 10133309
15:00+34всв99150 0.0 10133253
18:00+31всв811160 0.0 10142241
21:00+23всв48330 0.0 1014115
9 августа, вт
вт900:00+22всв35390 0.0 101462
03:00+20всв35470 0.0 101470
06:00+20всв48530 0.0 1014130
09:00+29всв712310 0.0 10131380
12:00+34всв1013160 0.0 10123047
15:00+34всв1112160 0.0 10122994
18:00+31всв8921100 0.0 10111995
21:00+24всв4934100 0.0 1011134
10 августа, ср
ср1000:00+23всв4739100 0.0 1010116
03:00+21св3754100 0.0 1010105
06:00+20св3107195 0.0 1009214
09:00+30св1115300 0.0 10082065
12:00+32всв1113260 0.0 10072132
15:00+32всв101128100 0.1 10072132
18:00+30всв6928100 0.8 10071369
21:00+25св4634100 0.8 100793
11 августа, чт
чт1100:00+25с373793 0.1 1006167
03:00+22св3451100 0.1 100664
06:00+23св366667 0.0 1006146
09:00+25всв41058100 0.0 1006357
12:00+31св893866 0.0 10062085
15:00+28всв684483 0.7 10071082
18:00+26св575342 1.3 1009807
21:00+22св33670 1.4 100946
12 августа, пт
пт1200:00+20ссв237926 0.3 101038
03:00+19в11760 0.3 100911
06:00+19всв22800 0.0 100917
09:00+25ссв34630 0.0 1010595
12:00+31с33420 0.0 10091683
15:00+34зсз43304 0.0 10082695
18:00+30з664333 0.0 1009702
21:00+24ю49650 0.0 1010203